Location: Alafon
(8.4500°N, 4.2333°E)
Time: 17:26:51
(UTC+00:00)

deb Explorer IX - Pass Details

Date: 25 July 2021
Orbit: 545 x 1091 km, 38.8° (Epoch: 20 September)

Event Time Altitude Azimuth Distance (km) Brightness Sun altitude
Rises 12:56:01 0° 245° (WSW) 2,906 ? 70.5°
Reaches altitude 10° 12:58:18 10° 252° (WSW) 2,067 ? 70.0°
Maximum altitude 13:02:52 42° 323° (NW) 1,027 ? 69.1°
Drops below altitude 10° 13:08:10 10° 34° (NE) 2,404 ? 68.0°
Sets 13:11:01 0° 41° (NE) 3,438 ? 67.4°
